Welcome to the New NWS' Forecast!
Most changes are behind the scenes, but click here for differences you might notice.

Regional Weather Roundup (RWR)

Issued by Gray - Portland, ME (GYX)

                            
000
ASUS41 KGYX 180310
RWRGYX
WEATHER ROUNDUP FOR MAINE AND NEW HAMPSHIRE
NATIONAL WEATHER SERVICE GRAY ME
1100 PM EDT WED OCT 17 2018

MEZ002-005-006-010-012-015-018-020-021-024-026-027-029-180400-
MAINE
  
CITY           SKY/WX    TMP DP  RH WIND       PRES   REMARKS
PORTLAND       FAIR      41  30  65 W12       29.85R                  
SANFORD        MOCLDY    39  35  86 SW5       29.88R                  
BAR HARBOR     FAIR      39  30  70 NW6       29.77R                  
WISCASSET      FAIR      39  29  67 W3        29.84R                  
ROCKLAND       FAIR      41  27  57 W8        29.81R                  
FRYEBURG       FAIR      41  22  46 VRB6      29.85R                  
LEWISTONAUBURN FAIR      41  25  53 NW8       29.82F                  
AUGUSTA        FAIR      39  26  59 VRB5      29.81R                  
WATERVILLE     FAIR      38  27  64 W7        29.77S                  
BANGOR         FAIR      39  29  67 W6        29.77R                  
GREENVILLE       N/A     34  25  69 NW15G24   29.68S                  
MILLINOCKET    FAIR      38  27  64 W15G23    29.72R                  
HOULTON        FAIR      36  31  82 W6        29.64R                  
PRESQUE ISLE   FAIR      33  29  85 W6        29.64S                  
FRENCHVILLE    CLOUDY    36  28  73 NW17G23   29.60R                  
CARIBOU        MOCLDY    34  29  82 VRB5      29.61S                  
$$

NHZ002-005-008-009-011-012-014-180400-
NEW HAMPSHIRE
  
CITY           SKY/WX    TMP DP  RH WIND       PRES   REMARKS
ROCHESTER      CLOUDY    39  38  96 CALM      29.87R                  
NASHUA         FAIR      41  36  82 W7        29.93R                  
MANCHESTER     FAIR      43  35  73 SW6       29.90R                  
CONCORD        LGT RAIN  39  35  86 NW12G23   29.91R                  
LACONIA        LGT RAIN  38  30  73 W12G23    29.90R                  
PLYMOUTH       CLOUDY    37  32  81 W10G17    29.89S                  
BERLIN         MOCLDY    37  26  64 NW10G22   29.81R                  
WHITEFIELD     FAIR      37  24  59 W9G24     29.86R                  
JAFFREY        FAIR      39  32  76 NW5       29.92R                  
KEENE          FAIR      41  29  62 CALM      29.94R                  
LEBANON        FAIR      36  31  82 CALM      29.92F                  
MT WASHINGTON  SNOW      14  14 100 W69G82      N/A  VSB 1/16WCI -14  
$$

VTZ005-007-008-180400-
VERMONT
  
CITY           SKY/WX    TMP DP  RH WIND       PRES   REMARKS
ST JOHNSBURY     N/A     35  30  82 MISG      29.89R                  
MONTPELIER     FLURRIES  34  30  85 W13G20    29.94R                  
BURLINGTON     MOCLDY    41  24  51 NW16G22   29.96R                  
$$

MAZ007-012-024-CTZ003-RIZ002-NYZ038-NYZ072-180400-
SOUTHERN NEW ENGLAND AND NY
  
CITY           SKY/WX    TMP DP  RH WIND       PRES   REMARKS
BOSTON         FAIR      48  33  56 W12       29.93R                  
WORCESTER      LGT RAIN  39  32  76 W16G26    29.94R                  
NANTUCKET      FAIR      50  34  54 NW21G29   29.94R                  
PROVIDENCE     FAIR      46  30  53 W12       29.99R                  
HARTFORD       FAIR      45  31  58 W13G22    30.03R                  
ALBANY         FAIR      42  30  62 W15G22    30.04R                  
NEW YORK CITY  FAIR      52  30  43 NW18G35   30.09R                  
$$

ANZ081-ANZ082-ANZ150-NHZ014-MEZ023>029-180400-
COASTAL MARINE OBSERVATIONS
  
STATION/POSITION TIME  TEMP    WIND        PRES    WAVE
                       AIR SEA DIR/SP/G            HT/PER
                 (UTC) (F)     (DEG/KT/KT) (MB)    (FT/S)
MOUNT DESERT ROC 0300   46     300/ 24/ 28 1008.1R
MATINICUS ROCK   0200   47     300/ 30/ 33 1008.0R
ISLE OF SHOALS   0200   46     270/ 18/ 20 1010.9R
JEFFREYS LEDGE   0206      56                N/A     5/ 5
$$

.............KEY..............
   WCI - WIND CHILL
   TC  - TEMPERATURE IN CELSIUS
   VSB - VISIBILITY IN MILES
   HX  - HEAT INDEX
   FAIR- INDICATES FEW OR NO CLOUDS BELOW 12,000 FT, WITH NO 
         SIGNIFICANT WEATHER AND/OR OBSTRUCTIONS TO VISIBILITY.